Wind_Speed
23 22 22 22 22 21 20 20 19 19 18 18 18 18 18 18 18 18 18 18 18 19 18 18 19 19 19 19 19 20 21 21 22 22 23 23 24 24 25 25 25 25 26
24 24 23 23 24 23 22 22 21 21 20 20 20 20 20 20 20 20 20 20 20 19 19 19 20 20 20 20 21 22 22 23 23 24 25 26 26 27 27 28 28 29 29
27 26 25 25 25 24 23 24 24 23 23 22 21 22 22 22 22 22 22 22 22 22 22 22 22 23 23 24 24 25 25 25 25 26 27 28 28 28 29 30 31 32 33
28 28 27 26 26 26 26 26 25 25 24 24 23 23 24 24 24 25 25 25 25 25 24 25 25 26 27 27 28 28 27 28 29 29 29 30 31 32 32 33 34 35 36
30 30 28 27 27 27 27 27 27 27 26 26 25 25 25 26 26 26 27 27 27 27 28 28 29 29 30 30 31 31 31 32 32 33 33 34 34 35 36 37 38 39 40
30 30 29 29 29 29 29 29 29 29 28 28 28 27 27 27 28 28 29 29 29 30 30 31 31 32 33 34 33 33 34 35 35 36 36 37 38 39 40 41 42 42 42
30 30 31 30 29 29 29 30 29 29 29 29 29 29 28 28 29 30 30 31 31 31 32 33 34 34 35 36 36 36 37 37 38 39 39 40 41 43 44 44 45 46 46
29 30 32 31 29 28 28 29 29 30 30 30 30 30 30 30 30 30 31 33 34 34 34 34 35 36 37 38 38 39 39 40 41 42 43 45 45 46 47 48 48 49 49
28 28 30 30 30 30 30 30 31 31 31 31 30 31 32 32 32 33 33 34 34 34 34 36 37 38 39 40 41 41 43 43 44 45 46 47 48 49 50 50 51 52 52
30 29 29 30 31 31 31 30 30 30 30 30 30 30 31 32 33 33 33 34 35 36 37 38 39 41 42 43 44 44 45 46 47 48 48 50 51 51 52 53 53 53 53
30 30 30 31 30 30 30 31 30 31 31 31 31 32 33 33 33 33 35 36 37 38 39 41 42 43 44 45 46 47 48 48 49 50 51 52 53 53 53 53 52 52 53
30 31 31 30 30 30 31 31 31 31 32 32 33 33 34 35 35 36 38 38 39 40 41 42 44 46 47 47 48 49 50 50 51 52 52 53 53 53 52 52 52 53 54
28 28 28 29 29 29 29 29 30 31 32 33 33 33 34 36 37 38 40 41 42 43 44 45 46 47 48 48 49 50 51 52 52 52 53 52 52 52 52 51 51 52 52
28 26 26 27 28 28 27 28 29 31 32 33 34 35 36 37 39 40 41 42 44 45 46 47 48 48 49 50 50 52 52 52 52 52 51 51 50 50 50 50 51 51 52
28 26 26 27 28 28 29 29 30 32 32 34 35 37 38 39 40 41 43 44 45 46 47 47 48 48 49 50 50 51 51 50 50 49 48 48 48 48 48 49 50 51 51
27 28 27 28 29 30 31 31 32 33 34 35 36 37 38 39 40 42 43 44 45 46 47 47 48 49 49 50 49 49 48 47 46 45 45 45 45 46 47 48 49 49 50
27 29 30 31 31 32 33 33 34 34 35 36 37 38 39 40 41 43 43 44 45 46 47 47 48 48 48 47 46 45 44 43 43 42 42 42 43 44 45 46 46 47 47
29 30 31 32 33 33 34 34 35 35 36 37 37 38 39 41 42 43 43 44 44 45 45 45 44 44 43 42 40 40 39 39 39 39 39 40 41 41 41 42 42 43 43
28 29 30 30 31 31 32 33 34 34 35 36 37 38 39 40 41 41 41 41 41 41 41 40 39 38 37 36 36 36 36 36 36 37 37 37 37 37 37 37 37 37 37
27 28 28 29 30 31 32 33 33 34 34 36 37 37 38 38 38 38 38 38 37 37 37 36 35 34 34 33 33 33 33 33 34 34 34 35 34 34 33 33 33 34 34
27 28 28 29 30 31 31 31 32 33 33 34 35 35 35 35 35 35 35 34 34 34 33 33 32 32 31 31 31 31 31 31 31 31 32 32 32 31 31 30 31 31 32
27 28 29 30 31 30 31 31 32 32 32 32 32 33 33 33 33 33 33 32 32 31 30 30 29 29 29 29 29 29 29 29 29 29 29 29 29 28 28 29 29 29 30
26 27 27 28 29 29 29 29 29 29 29 30 30 30 30 30 30 31 30 30 29 28 27 27 27 27 27 27 27 27 27 27 27 26 26 26 25 26 26 26 27 28 28
24 24 24 25 25 26 26 26 26 27 27 28 28 28 27 28 28 28 27 26 26 25 24 24 24 24 24 25 25 25 24 24 23 23 23 23 24 24 24 25 26 26 26
21 22 22 22 23 24 24 25 25 26 26 26 25 25 25 25 25 24 24 23 22 22 22 22 22 22 23 23 22 22 21 21 21 21 21 21 21 22 22 23 24 24 24
19 20 21 21 22 22 22 23 23 23 24 24 24 24 23 23 22 22 21 20 20 20 20 20 20 20 20 21 20 20 19 19 19 19 18 18 19 20 20 21 22 23 22
Wind_Direction
241 240 240 240 241 241 240 240 239 240 243 246 248 251 255 258 262 266 270 274 277 279 279 280 280 281 281 281 283 283 283 283 281 280 277 277 275 273 272 270 269 269 268
238 238 240 241 242 241 240 240 241 241 243 246 249 251 255 258 262 267 271 273 276 278 278 279 279 279 280 283 283 283 281 280 281 279 278 277 276 273 272 270 269 269 268
238 238 239 241 241 240 242 241 241 242 244 247 250 253 256 259 262 266 270 272 274 276 277 279 279 279 281 282 282 282 281 280 279 278 276 277 276 275 274 272 271 270 270
239 238 238 241 240 242 243 243 245 245 247 250 252 256 258 260 263 267 270 271 274 275 276 278 279 280 281 282 282 281 281 280 279 278 278 278 278 277 276 275 274 272 271
239 236 237 241 241 243 244 245 245 246 249 252 255 258 260 262 265 268 271 273 274 276 278 279 279 279 281 282 282 281 280 280 280 279 279 278 278 277 277 276 275 274 272
239 237 239 241 242 245 247 247 248 249 250 254 258 261 262 264 267 269 271 272 274 277 279 279 279 279 280 281 282 282 282 282 281 280 279 279 278 278 278 277 277 276 274
241 240 240 243 243 245 247 247 248 250 253 257 259 261 264 267 268 269 270 271 274 276 277 279 280 280 280 281 281 282 282 282 281 280 279 279 279 280 279 279 278 277 276
245 243 243 243 245 246 248 250 251 253 258 260 261 261 264 267 270 271 270 272 274 276 277 279 279 280 281 281 282 282 283 282 280 280 280 280 279 279 279 279 278 277 277
244 246 246 246 245 246 248 252 254 257 260 259 260 262 265 267 270 271 273 274 274 274 276 277 278 279 280 281 282 283 283 282 282 281 280 280 280 281 280 280 279 278 278
249 248 246 245 244 246 250 252 254 257 259 259 261 264 265 267 270 272 272 273 274 274 276 277 278 280 281 281 282 283 283 282 282 282 282 282 282 282 282 281 280 280 279
250 248 246 245 245 247 250 252 255 257 257 258 261 263 265 268 270 272 274 274 275 276 277 278 279 280 281 282 283 283 283 283 283 283 284 284 284 284 284 283 282 281 281
250 247 245 245 246 248 251 254 257 259 259 261 263 265 266 268 270 273 276 277 277 278 279 281 281 281 282 283 283 284 284 284 284 284 284 285 285 285 285 284 282 282 282
246 243 246 244 245 247 251 254 257 260 261 263 265 266 269 271 272 275 277 279 279 279 280 280 281 281 282 283 283 284 285 285 285 285 285 285 285 285 285 284 284 284 283
246 246 245 245 247 250 253 256 260 262 264 265 267 269 272 273 275 276 278 279 280 280 280 281 281 282 283 283 284 284 285 286 286 286 287 287 286 286 286 285 285 285 284
246 245 244 245 246 251 255 260 263 265 267 268 269 271 274 275 277 278 279 280 281 282 282 282 283 283 284 285 285 286 287 287 287 288 288 288 288 288 287 287 287 287 286
248 244 246 247 250 254 258 262 265 266 268 271 272 274 276 277 277 278 280 281 282 282 283 283 283 285 286 286 286 287 288 288 288 289 289 289 289 289 289 289 289 288 288
252 252 254 254 256 258 260 263 265 267 270 272 274 276 277 278 278 280 280 281 282 282 283 284 284 286 286 287 287 288 289 290 290 290 291 291 291 291 292 291 291 290 289
253 253 254 255 257 260 262 266 268 270 273 274 276 277 278 279 280 281 281 282 283 284 285 286 286 287 288 288 289 290 290 290 291 291 292 293 294 294 294 294 294 293 293
253 252 255 258 261 263 265 267 269 272 274 275 277 279 279 280 281 282 283 284 285 285 286 287 287 288 289 290 291 291 291 292 293 294 295 296 297 298 297 297 296 297 297
258 259 260 262 264 266 269 270 271 272 274 276 278 279 281 282 283 283 284 285 286 286 287 287 287 289 289 290 292 293 294 295 295 296 297 299 300 300 301 301 301 302 302
262 264 266 268 270 270 271 272 273 275 276 277 279 280 281 282 283 284 285 285 286 286 287 288 289 289 290 291 292 294 295 296 297 299 300 302 302 303 304 304 305 306 307
265 266 268 269 270 271 272 273 275 276 277 278 279 281 282 283 285 285 286 287 287 287 287 288 289 290 291 292 293 295 296 297 300 302 304 304 304 305 307 309 311 312 312
268 270 270 270 271 273 274 275 276 277 278 280 281 282 284 284 285 287 288 288 289 289 289 289 289 291 292 293 295 297 298 300 303 305 306 307 307 309 310 313 315 316 316
271 272 272 273 273 274 274 276 277 277 279 281 282 283 284 285 287 289 290 290 290 290 291 291 291 293 294 295 297 299 301 303 304 306 308 309 310 313 315 317 318 320 321
272 273 274 274 275 276 276 276 277 277 279 280 281 283 285 287 289 290 290 291 292 293 293 293 294 296 297 299 300 301 302 303 305 307 309 311 314 317 319 321 322 325 326
275 276 277 277 277 277 277 277 278 278 280 282 283 285 286 288 289 290 290 292 292 293 295 296 297 299 300 301 302 302 303 305 307 309 312 315 318 321 323 325 328 330 332
Height
5865 5867 5868 5870 5871 5873 5874 5875 5876 5877 5878 5879 5879 5879 5879 5879 5879 5879 5878 5878 5877 5877 5876 5875 5874 5874 5873 5872 5871 5871 5870 5870 5869 5868 5868 5868 5867 5867 5867 5867 5866 5866 5866
5860 5862 5863 5865 5867 5868 5869 5871 5872 5873 5874 5875 5875 5875 5875 5875 5875 5875 5875 5874 5873 5873 5872 5871 5871 5870 5869 5868 5867 5866 5866 5865 5864 5863 5863 5862 5861 5861 5860 5860 5860 5860 5860
5855 5857 5859 5860 5862 5863 5865 5866 5867 5869 5870 5870 5871 5871 5871 5871 5871 5871 5870 5870 5869 5869 5868 5867 5867 5866 5865 5864 5863 5862 5860 5860 5859 5858 5857 5856 5855 5854 5854 5853 5853 5853 5852
5850 5852 5854 5856 5857 5858 5860 5862 5863 5864 5865 5865 5866 5866 5866 5866 5866 5866 5866 5865 5865 5864 5863 5863 5862 5861 5860 5859 5857 5856 5855 5854 5853 5852 5851 5850 5849 5847 5847 5846 5845 5844 5844
5845 5846 5848 5850 5851 5853 5855 5856 5857 5858 5859 5860 5860 5861 5861 5861 5861 5861 5861 5860 5859 5858 5858 5857 5856 5855 5854 5853 5851 5850 5849 5847 5846 5845 5844 5842 5841 5840 5838 5837 5836 5835 5834
5839 5841 5842 5844 5845 5847 5849 5850 5851 5853 5854 5854 5855 5855 5855 5855 5855 5855 5855 5854 5854 5853 5852 5851 5849 5848 5847 5846 5844 5843 5841 5840 5838 5837 5835 5834 5832 5831 5829 5828 5827 5825 5824
5833 5835 5836 5838 5840 5841 5843 5844 5845 5846 5848 5848 5849 5850 5849 5849 5849 5849 5848 5848 5847 5846 5845 5844 5842 5841 5839 5838 5836 5835 5833 5832 5830 5828 5826 5825 5823 5821 5819 5818 5816 5815 5813
5827 5829 5830 5832 5833 5835 5836 5838 5839 5841 5842 5842 5843 5843 5843 5844 5843 5842 5842 5841 5840 5839 5838 5836 5835 5833 5831 5830 5828 5827 5825 5823 5821 5819 5817 5815 5813 5810 5808 5807 5805 5803 5801
5820 5822 5824 5826 5827 5829 5830 5832 5833 5834 5835 5836 5836 5837 5837 5837 5836 5836 5834 5834 5832 5831 5830 5828 5826 5825 5823 5821 5819 5818 5815 5813 5810 5808 5806 5804 5801 5799 5797 5794 5792 5790 5788
5814 5815 5817 5818 5820 5822 5824 5825 5826 5827 5828 5829 5829 5829 5830 5830 5829 5828 5827 5826 5825 5823 5821 5819 5818 5816 5813 5811 5809 5807 5805 5802 5800 5797 5795 5792 5789 5786 5784 5781 5779 5776 5774
5808 5809 5810 5812 5814 5815 5817 5818 5819 5820 5821 5821 5822 5822 5822 5822 5821 5820 5819 5818 5817 5815 5812 5810 5808 5806 5804 5801 5799 5797 5794 5791 5788 5786 5783 5780 5777 5773 5770 5767 5765 5762 5760
5800 5802 5803 5805 5807 5809 5810 5811 5812 5813 5813 5813 5813 5814 5813 5813 5813 5811 5810 5808 5807 5805 5803 5801 5798 5796 5793 5790 5788 5785 5783 5780 5776 5773 5770 5767 5764 5760 5757 5754 5751 5748 5745
5794 5796 5797 5799 5801 5802 5803 5804 5804 5805 5805 5805 5805 5805 5805 5805 5803 5802 5801 5798 5796 5795 5792 5790 5787 5785 5782 5779 5777 5774 5771 5767 5764 5760 5757 5754 5750 5747 5743 5740 5737 5734 5730
5788 5790 5791 5793 5794 5795 5796 5797 5797 5798 5798 5797 5797 5797 5796 5795 5794 5792 5791 5789 5786 5784 5782 5779 5776 5773 5770 5767 5764 5761 5758 5755 5751 5747 5744 5740 5737 5734 5730 5727 5724 5720 5717
5782 5783 5785 5786 5787 5788 5789 5790 5790 5790 5790 5789 5789 5788 5787 5786 5784 5782 5781 5778 5776 5773 5770 5768 5765 5762 5758 5755 5752 5748 5745 5742 5738 5735 5731 5728 5725 5721 5718 5714 5710 5707 5703
5776 5776 5778 5779 5780 5781 5782 5782 5782 5782 5781 5780 5779 5778 5777 5776 5774 5772 5770 5767 5765 5762 5759 5756 5753 5750 5747 5743 5740 5736 5733 5730 5727 5723 5720 5716 5713 5709 5705 5701 5697 5693 5689
5768 5769 5770 5772 5773 5773 5774 5774 5774 5773 5772 5771 5770 5769 5768 5766 5764 5762 5759 5756 5754 5751 5748 5745 5742 5738 5735 5732 5729 5726 5722 5719 5716 5713 5709 5705 5701 5697 5693 5689 5684 5680 5676
5761 5762 5763 5764 5765 5765 5765 5765 5764 5764 5763 5762 5761 5759 5757 5755 5753 5751 5748 5746 5743 5740 5737 5734 5730 5728 5725 5722 5719 5716 5712 5709 5706 5702 5699 5695 5691 5686 5682 5678 5673 5669 5665
5754 5755 5756 5756 5757 5756 5756 5756 5755 5754 5753 5752 5751 5749 5747 5745 5743 5740 5738 5735 5732 5729 5726 5723 5720 5718 5715 5712 5709 5706 5703 5700 5697 5693 5690 5686 5681 5677 5672 5668 5664 5659 5654
5747 5748 5748 5748 5748 5748 5748 5747 5746 5745 5744 5743 5741 5739 5737 5735 5733 5731 5728 5725 5723 5720 5717 5714 5711 5709 5706 5703 5701 5698 5695 5692 5689 5685 5681 5677 5673 5668 5664 5659 5655 5650 5646
5740 5740 5740 5740 5740 5740 5739 5738 5738 5737 5735 5734 5732 5730 5728 5726 5724 5721 5719 5716 5713 5711 5708 5705 5703 5701 5698 5695 5693 5690 5687 5684 5681 5677 5673 5669 5665 5661 5656 5652 5648 5643 5638
5732 5732 5732 5732 5732 5731 5731 5730 5729 5728 5727 5725 5723 5722 5719 5717 5715 5713 5710 5708 5705 5703 5700 5698 5695 5693 5690 5688 5685 5683 5680 5677 5674 5670 5666 5662 5658 5654 5650 5646 5641 5636 5631
5725 5724 5724 5724 5724 5723 5723 5722 5721 5720 5719 5717 5715 5713 5711 5709 5707 5705 5702 5699 5697 5695 5693 5691 5688 5686 5683 5681 5679 5676 5673 5670 5667 5664 5660 5656 5653 5649 5644 5640 5635 5630 5625
5718 5717 5717 5717 5716 5716 5715 5715 5714 5712 5711 5709 5707 5706 5703 5701 5699 5697 5695 5692 5690 5688 5686 5684 5682 5679 5677 5675 5672 5670 5667 5665 5662 5659 5655 5652 5648 5644 5640 5635 5631 5626 5620
5711 5711 5710 5710 5709 5709 5708 5707 5706 5705 5703 5702 5700 5698 5696 5694 5692 5690 5688 5686 5684 5682 5680 5678 5676 5674 5672 5669 5667 5665 5662 5660 5657 5654 5651 5647 5644 5639 5635 5631 5626 5621 5616
5706 5705 5704 5703 5703 5702 5701 5700 5699 5698 5697 5695 5693 5691 5690 5688 5686 5684 5682 5680 5679 5677 5675 5673 5671 5669 5667 5664 5662 5660 5657 5655 5652 5650 5647 5643 5640 5636 5632 5628 5623 5618 5613